Date,TemperatureHighF,TemperatureAvgF,TemperatureLowF,DewpointHighF,DewpointAvgF,DewpointLowF,HumidityHigh,HumidityAvg,HumidityLow,PressureMaxIn,PressureMinIn,WindSpeedMaxMPH,WindSpeedAvgMPH,GustSpeedMaxMPH,PrecipitationSumIn
2013-3-1,31.8,26.8,20.1,22.3,17.3,11.6,72,67,56,29.91,29.72,11,6,0,0.00
2013-3-2,29.1,22.0,15.4,16.1,12.2,7.1,70,66,57,29.93,29.85,9,5,0,0.00
2013-3-3,25.3,21.2,16.7,15.1,11.8,7.8,72,67,59,29.86,29.80,9,4,0,0.00
2013-3-4,32.7,23.8,16.7,17.9,13.5,9.3,72,65,48,30.01,29.84,6,3,0,0.00
2013-3-5,37.2,26.3,16.2,22.3,16.0,7.8,72,65,46,30.04,29.92,10,3,0,0.00
2013-3-6,43.0,35.1,27.0,29.9,24.7,17.9,70,66,58,30.11,29.91,9,3,0,0.00
2013-3-7,43.0,36.5,33.1,30.2,23.7,9.9,69,60,37,30.23,30.09,6,2,0,0.04
2013-3-8,43.7,36.9,29.3,30.3,23.3,12.0,71,58,41,30.35,30.23,7,3,0,0.02
2013-3-9,49.5,36.8,26.1,30.2,15.3,-61.2,72,49,1,30.35,30.11,5,1,0,0.00
2013-3-10,59.7,46.8,35.8,36.3,30.3,26.3,70,55,33,30.12,29.88,7,2,0,0.00
2013-3-11,52.2,44.7,41.4,39.3,34.0,30.3,71,66,56,29.88,29.54,3,1,0,0.33
2013-3-12,44.6,38.6,33.8,33.0,29.8,25.4,72,70,53,29.80,29.57,7,4,0,0.02
2013-3-13,36.9,30.7,20.1,27.9,20.4,7.3,74,66,42,29.91,29.74,16,4,0,0.01
2013-3-14,33.8,24.3,16.5,10.8,5.7,-18.3,71,48,10,30.01,29.91,12,5,0,0.00
2013-3-15,43.2,32.4,23.2,28.7,19.2,11.0,71,59,38,29.95,29.63,14,5,0,0.00
2013-3-16,31.1,24.7,20.3,16.7,11.7,5.7,72,57,41,29.91,29.80,7,3,0,0.00
2013-3-17,30.0,23.4,18.1,13.9,7.4,1.2,71,51,33,30.27,29.92,8,3,0,0.00
2013-3-18,32.5,26.4,15.4,23.0,-0.4,-59.8,70,47,1,30.26,29.57,23,6,0,0.00
2013-3-19,35.1,30.7,23.9,28.6,-5.9,-58.4,81,47,1,29.73,29.51,13,4,0,0.09
2013-3-20,34.0,26.6,21.2,23.5,17.3,11.9,78,68,45,29.75,29.70,12,5,0,0.00
2013-3-21,33.6,25.1,17.6,26.0,16.9,10.7,77,71,60,29.73,29.60,10,4,0,0.00
2013-3-22,38.8,30.4,25.0,23.7,20.7,16.9,76,68,52,29.85,29.66,11,4,0,0.06
2013-3-23,42.6,33.4,27.9,23.6,21.8,18.8,76,63,38,29.97,29.84,9,4,0,0.00
2013-3-24,40.5,32.8,23.9,23.3,20.3,16.9,76,61,39,29.97,29.68,8,3,0,0.00
2013-3-25,47.1,38.3,31.1,26.3,23.2,21.3,67,55,42,29.69,29.57,12,4,0,0.00
2013-3-26,50.9,41.5,34.2,27.2,25.3,17.3,66,54,29,29.89,29.69,8,4,0,0.00
2013-3-27,45.9,37.6,33.3,32.8,27.7,23.5,81,68,46,30.00,29.86,8,4,0,0.00
2013-3-28,46.4,39.8,33.1,31.8,28.8,24.6,83,66,44,30.14,29.99,7,3,0,0.00
2013-3-29,53.4,43.0,35.2,30.1,24.7,14.3,74,51,29,30.15,30.06,7,3,0,0.00
2013-3-30,55.2,42.5,26.8,30.4,21.8,10.7,84,48,19,30.14,29.93,7,1,0,0.00
2013-3-31,56.3,44.4,33.4,40.0,30.5,24.7,86,60,34,29.93,29.50,9,2,0,0.07